La Grande, OR

8:23 PM PDT on September 18, 2019 (GMT -0700)
La Grande-Union County

Weather History for KLGD - August, 2019

Change the Weather History Date:

Monday, August 19, 2019

  Actual Average Record
Temperature  
Mean Temperature 70 °F -  
Max Temperature 90 °F 82 °F 101 °F (1967)
Min Temperature 51 °F 48 °F 37 °F (1996)
Cooling Degree Days 6    
Growing Degree Days 20 (Base 50)    
Moisture  
Dew Point 45 °F    
Average Humidity 43    
Maximum Humidity 74    
Minimum Humidity 20    
Precipitation  
Precipitation 0.00 in - - ()
Sea Level Pressure  
Sea Level Pressure 30.34 in    
Wind  
Wind Speed 4 mph (NNW)    
Max Wind Speed 14 mph    
Max Gust Speed 18 mph    
Visibility 10 miles    
Events      
Averages and records for this station are not official NWS values.
T = Trace of Precipitation, MM = Missing Value Source: NWS Daily Summary

Daily Weather History Graph

Daily Weather History Graph

Search for Another Location

Airport or City:

Astronomy

Aug. 19, 2019 Rise Set
Actual Time 5:57 AM PDT 7:52 PM PDT
Civil Twilight 5:26 AM PDT 8:24 PM PDT
Nautical Twilight 4:47 AM PDT 9:02 PM PDT
Astronomical Twilight 4:04 AM PDT 9:45 PM PDT
Moon 10:05 PM PDT 9:52 AM PDT
Length of Visible Light 14h 58m
Length of Day
13h 54m
Waning Gibbous, 84% of the Moon is Illuminated
Aug 19
Waning Gibbous
Aug 23
Last Quarter
Aug 30
New
Sep 5
First Quarter
Sep 13
Full

Hourly Weather History & Observations

Time (PDT) Temp. Dew Point Humidity Pressure Visibility Wind Dir Wind Speed Gust Speed Precip Events Conditions
12:56 AM 63.0 °F 45.0 °F 52% 30.27 in 10.0 mi Calm Calm - N/A   Clear
1:56 AM 54.0 °F 45.0 °F 72% 30.29 in 10.0 mi South 3.5 mph - N/A   Clear
2:56 AM 57.9 °F 45.0 °F 62% 30.29 in 10.0 mi Calm Calm - N/A   Clear
3:56 AM 55.0 °F 44.1 °F 67% 30.31 in 10.0 mi Calm Calm - N/A   Clear
4:56 AM 54.0 °F 44.1 °F 69% 30.32 in 10.0 mi East 3.5 mph - N/A   Clear
5:56 AM 51.1 °F 43.0 °F 74% 30.33 in 10.0 mi SE 3.5 mph - N/A   Clear
7:56 AM 59.0 °F 46.9 °F 64% 30.37 in 10.0 mi East 4.6 mph - N/A   Clear
8:56 AM 66.0 °F 46.0 °F 48% 30.38 in 10.0 mi Variable 3.5 mph - N/A   Clear
9:56 AM 75.0 °F 45.0 °F 34% 30.38 in 10.0 mi Calm Calm - N/A   Clear
10:56 AM 79.0 °F 44.1 °F 29% 30.37 in 10.0 mi NW 13.8 mph 17.3 mph N/A   Clear
11:56 AM 82.0 °F 43.0 °F 25% 30.36 in 10.0 mi NNW 11.5 mph - N/A   Clear
12:56 PM 86.0 °F 39.9 °F 20% 30.35 in 10.0 mi NNW 10.4 mph - N/A   Clear
1:56 PM 87.1 °F 43.0 °F 21% 30.34 in 10.0 mi Variable 6.9 mph - N/A   Clear
2:56 PM 89.1 °F 43.0 °F 20% 30.33 in 10.0 mi NNE 8.1 mph 18.4 mph N/A   Clear
3:56 PM 90.0 °F 44.1 °F 20% 30.33 in 10.0 mi WSW 9.2 mph - N/A   Clear
4:56 PM 88.0 °F 45.0 °F 22% 30.33 in 10.0 mi NNW 11.5 mph - N/A   Clear
5:56 PM 86.0 °F 46.9 °F 26% 30.33 in 10.0 mi North 13.8 mph - N/A   Clear
6:56 PM 82.9 °F 46.9 °F 28% 30.34 in 10.0 mi NNW 6.9 mph - N/A   Clear
7:56 PM 77.0 °F 45.0 °F 32% 30.35 in 10.0 mi WNW 8.1 mph - N/A   Clear
8:56 PM 70.0 °F 45.0 °F 41% 30.38 in 10.0 mi NNE 6.9 mph - N/A   Clear
9:56 PM 66.9 °F 46.9 °F 49% 30.38 in 10.0 mi WSW 4.6 mph - N/A   Clear
10:56 PM 66.9 °F 45.0 °F 45% 30.38 in 10.0 mi WSW 6.9 mph - N/A   Clear
11:56 PM 61.0 °F 46.0 °F 58% 30.38 in 10.0 mi Calm Calm - N/A   Clear